Current weather by "City, St" or "zip code"  
 

Current Conditions: LA GRANDE

Light Rain


48.0 F

Last Updated on Jun 17 2024, 09:56 PM PDT
Humidity: 83%
Wind Speed: 6.9 mph
Barometer 30.05 in
Dewpoint: 43.0 F
Visibility: 10.00 mi
Precip: Trace
Heat Index: NA
Wind Chill: 44.8 F
Current conditions at:

LA GRANDE (KLGD)

Lat: 45.28 Lon: 118

active severe weather and emergency alerts image image weather storm and storm spotter reports image weather observation monitoring service image
Active
Alerts
Storm Reports Obs
Monitoring

Sign-up For Email & Text Message Weather Alert Notification Services



Advertise Here

Observation History for LA GRANDE


Time Wind
(mph)
Vis
(mi)
Weather Precip (in) Temperature (F) Relative
Humidity
Wind
Chill
(F)
Heat
Index
(F)
Pressure
Air Dwpt altimeter
(in)
sea level
(mb)
Rmks
09:56 PM PDT 6.9 10.00 Light Rain Trace 48.0 43.0 83% 44.8 NA 30.05 1017.6
08:56 PM PDT 5.8 10.00 Mostly Cloudy Trace 48.0 45.0 89% 45.5 NA 30.02 1016.6
07:56 PM PDT SW 5.8 10.00 Light Rain 00.05 48.9 45.0 86% 46.4 NA 30.00 1015.9
06:56 PM PDT W 9.2 10.00 Cloudy Trace 54.0 39.9 59% NA NA 29.98 1015.2
05:56 PM PDT W 10.3 10.00 Mostly Cloudy Trace 55.0 39.0 55% NA NA 29.97 1014.9
04:56 PM PDT 10.00 Partly Cloudy -- 57.9 37.9 47% NA NA 29.96 1014.6
03:56 PM PDT NW 12.8 10.00 Cloudy Trace 57.0 37.9 49% NA NA 29.96 1014.6
02:56 PM PDT 10.00 Mostly Cloudy -- 54.0 36.0 50% NA NA 29.97 1014.9
01:56 PM PDT 11.4 10.00 Mostly Cloudy Trace 53.1 37.9 56% NA NA 29.97 1014.9
12:56 PM PDT 10.00 Mostly Cloudy -- 54.0 35.1 49% NA NA 29.95 1014.2
11:56 AM PDT 10.00 Mostly Cloudy -- 55.9 34.0 43% NA NA 29.94 1013.9
10:56 AM PDT 13.9 10.00 Cloudy -- 51.1 36.0 56% NA NA 29.94 1013.9
09:09 AM PDT 10.00 Cloudy -- 46.4 37.4 71% NA NA 29.94 1013.9
05:56 AM PDT NW 9.2 10.00 Cloudy -- 43.0 39.0 86% 37.8 NA 29.91 1012.9
04:56 AM PDT NW 6.9 10.00 NULL -- 43.0 37.9 82% 38.8 NA 29.89 1012.2
03:56 AM PDT NW 9.2 10.00 Mostly Clear Trace 43.0 37.9 82% 37.8 NA 29.88 1011.9
02:56 AM PDT NW 9.2 10.00 Light Rain Trace 43.0 39.0 86% 37.8 NA 29.88 1011.9
01:56 AM PDT NW 9.2 10.00 Light Rain 00.02 43.0 37.9 82% 37.8 NA 29.88 1011.9
12:56 AM PDT NW 6.9 8.00 Light Rain 00.02 43.0 39.0 86% 38.8 NA 29.89 1012.2
11:56 PM PDT 11.4 10.00 Light Rain Trace 46.0 37.9 73% 40.6 NA 29.88 1011.9
10:56 PM PDT NW 10.3 10.00 Mostly Cloudy Trace 46.9 36.0 65% 42.1 NA 29.88 1011.9
09:56 PM PDT 10.00 Light Rain Trace 48.0 37.0 66% NA NA 29.89 1012.2
08:56 PM PDT 5.8 10.00 Mostly Cloudy -- 50.0 37.9 63% NA NA 29.87 1011.5
06:56 PM PDT NW 3.4 10.00 Clear -- 53.1 33.1 46% NA NA 29.88 1011.9

Regional Weather Observation


MEACHAM (KMEH)

Cloudy
43.0 F

PENDLETON (KPDT)

Cloudy
55.0 F

WALLA WALLA (KALW)

Cloudy
55.9 F

HERMISTON (KHRI)

Partly Cloudy
57.0 F

BAKER (KBKE)

Cloudy
46.9 F

JOHN DAY STATE (KGCD)

Mostly Cloudy
50.5 F

Advertise Here


Advertise Here